Regional Weather Roundup
Issued by NWS

Home | Current Version | Previous Version | Graphics & Text | Print | Product List | Glossary On
Versions: 1 2 3 4 5 6 7 8 9 10 11 12 13 14 15 16 17 18 19 20 21 22 23 24 25 26 27
000
ASUS45 KCYS 171110
RWRWY

WYOMING REGIONAL WEATHER ROUNDUP
NATIONAL WEATHER SERVICE CHEYENNE WY
500 AM MDT THU AUG 17 2017

NOTE:  "FAIR" INDICATES FEW OR NO CLOUDS BELOW 12,000 FEET
WITH NO SIGNIFICANT WEATHER AND/OR OBSTRUCTIONS TO VISIBILITY.

WYZ001-171200-
YELLOWSTONE NATIONAL PARK

CITY           SKY/WX    TMP DP  RH WIND       PRES   REMARKS
LK YELLOWSTONE   N/A     43  41  93 NW3       30.26S
W YELLOWSTONE  NOT AVBL

$$
WYZ002>013-054>058-071-098>099-171200-
NORTHERN WYOMING

CITY           SKY/WX    TMP DP  RH WIND       PRES   REMARKS
JACKSON        FAIR      39  33  79 NE3       30.21R
CODY           FAIR      62  38  40 CALM      30.06R
GREYBULL       FAIR      59  41  51 CALM      29.98R
WORLAND        FAIR      55  42  61 S9        29.99S
SHERIDAN       FAIR      55  43  63 S3        29.96R
BUFFALO        FAIR      64  34  32 W7        30.03R
GILLETTE       FAIR      64  35  34 SW13      29.98R
HULETT         FAIR      64  41  42 SW9       29.98F
NEWCASTLE      FAIR      59  39  47 S7        30.02S

$$
WYZ014>020-022>026-101>103-171200-
CENTRAL WYOMING

CITY           SKY/WX    TMP DP  RH WIND       PRES   REMARKS
BIG PINEY      FAIR      40  36  86 NW5       30.25S
PINEDALE       FAIR      37  36  93 W6        30.27R WCI  33
DUBOIS         FAIR      45  32  61 W14       30.22S
LANDER           N/A    N/A N/A N/A MISG      30.09S
RIVERTON       FAIR      56  38  50 W8        30.10R
CASPER         FAIR      60  43  53 SW7       30.08S
DOUGLAS        FAIR      55  48  77 CALM      30.07S

$$
WYZ021-027>030-104>119-171200-
SOUTHERN WYOMING

CITY           SKY/WX    TMP DP  RH WIND       PRES   REMARKS
EVANSTON       FAIR      53  36  52 S7        30.26S
KEMMERER         N/A     46  37  71 N7        30.26S
FORT BRIDGER   FAIR      60  32  34 W10       30.28S
ROCK SPRINGS   FAIR      55  38  52 S8        30.23R
RAWLINS        FAIR      54  40  59 CALM      30.21S
SARATOGA       FAIR      52  41  66 S12G18    30.25S
LARAMIE        FAIR      45  39  79 S9        30.25R
CHEYENNE       FAIR      53  44  71 W9        30.17F
TORRINGTON     FAIR      52  48  86 SE7       30.04S
PINE BLUFFS    FAIR      50  48  93 SW7       30.14S

$$




USA.gov is the U.S. government's official web portal to all federal, state and local government web resources and services.